Time,TemperatureF,DewpointF,PressureIn,WindDirection,WindDirectionDegrees,WindSpeedMPH,WindSpeedGustMPH,Humidity,HourlyPrecipIn,Conditions,Clouds,dailyrainin,SoftwareType,DateUTC
2013-03-25 00:00:00,32.1,23.1,29.60,NE,40,3.0,10.0,69,0.00,,,0.00,Wunderground v.1.12,2013-03-25 04:00:00,
2013-03-25 00:01:00,32.1,23.1,29.60,NE,39,12.0,15.0,69,0.00,,,0.00,Wunderground v.1.12,2013-03-25 04:01:00,
2013-03-25 00:07:00,32.1,23.1,29.60,NE,46,6.0,10.0,69,0.00,,,0.00,Wunderground v.1.12,2013-03-25 04:07:00,
2013-03-25 00:12:00,32.1,23.1,29.60,ENE,58,9.0,10.0,69,0.00,,,0.00,Wunderground v.1.12,2013-03-25 04:12:00,
2013-03-25 00:19:00,32.1,23.1,29.60,NNE,17,11.0,13.0,69,0.00,,,0.00,Wunderground v.1.12,2013-03-25 04:19:00,
2013-03-25 00:24:00,32.2,22.8,29.60,NNE,18,8.0,10.0,68,0.00,,,0.00,Wunderground v.1.12,2013-03-25 04:24:00,
2013-03-25 00:30:00,32.2,22.8,29.59,NE,42,9.0,9.0,68,0.00,,,0.00,Wunderground v.1.12,2013-03-25 04:30:00,
2013-03-25 00:36:00,32.2,22.8,29.59,NNE,31,13.0,13.0,68,0.00,,,0.00,Wunderground v.1.12,2013-03-25 04:36:00,
2013-03-25 00:42:00,32.2,22.8,29.59,NE,41,7.0,11.0,68,0.00,,,0.00,Wunderground v.1.12,2013-03-25 04:42:00,
2013-03-25 00:47:00,32.4,23.0,29.59,NNE,22,8.0,11.0,68,0.00,,,0.00,Wunderground v.1.12,2013-03-25 04:47:00,
2013-03-25 00:52:00,32.4,22.7,29.59,NE,54,12.0,14.0,67,0.00,,,0.00,Wunderground v.1.12,2013-03-25 04:52:00,
2013-03-25 00:57:00,32.4,22.7,29.59,NNE,31,14.0,14.0,67,0.00,,,0.00,Wunderground v.1.12,2013-03-25 04:57:00,
2013-03-25 01:04:00,32.4,22.7,29.59,ENE,59,5.0,11.0,67,0.00,,,0.00,Wunderground v.1.12,2013-03-25 05:04:00,
2013-03-25 01:10:00,32.4,22.7,29.59,NE,46,6.0,10.0,67,0.00,,,0.00,Wunderground v.1.12,2013-03-25 05:10:00,
2013-03-25 01:15:00,32.4,22.7,29.59,NNE,25,13.0,13.0,67,0.00,,,0.00,Wunderground v.1.12,2013-03-25 05:15:00,
2013-03-25 01:21:00,32.5,22.8,29.59,NNE,26,14.0,14.0,67,0.00,,,0.00,Wunderground v.1.12,2013-03-25 05:21:00,
2013-03-25 01:26:00,32.5,22.8,29.59,NNE,31,11.0,11.0,67,0.00,,,0.00,Wunderground v.1.12,2013-03-25 05:26:00,
2013-03-25 01:32:00,32.5,22.8,29.59,NNE,29,17.0,17.0,67,0.00,,,0.00,Wunderground v.1.12,2013-03-25 05:32:00,
2013-03-25 01:39:00,32.5,22.4,29.59,ENE,66,11.0,16.0,66,0.00,,,0.00,Wunderground v.1.12,2013-03-25 05:39:00,
2013-03-25 01:44:00,32.5,22.4,29.59,NE,41,8.0,13.0,66,0.00,,,0.00,Wunderground v.1.12,2013-03-25 05:44:00,
2013-03-25 01:50:00,32.5,22.4,29.59,East,81,10.0,10.0,66,0.00,,,0.00,Wunderground v.1.12,2013-03-25 05:50:00,
2013-03-25 01:57:00,32.7,22.6,29.58,NE,56,10.0,10.0,66,0.00,,,0.00,Wunderground v.1.12,2013-03-25 05:57:00,
2013-03-25 02:02:00,32.5,22.4,29.58,NNE,30,12.0,18.0,66,0.00,,,0.00,Wunderground v.1.12,2013-03-25 06:02:00,
2013-03-25 02:07:00,32.5,22.4,29.58,ENE,60,8.0,19.0,66,0.00,,,0.00,Wunderground v.1.12,2013-03-25 06:07:00,
2013-03-25 02:12:00,32.5,22.4,29.58,NE,52,3.0,13.0,66,0.00,,,0.00,Wunderground v.1.12,2013-03-25 06:12:00,
2013-03-25 02:17:00,32.5,22.4,29.58,ENE,59,12.0,16.0,66,0.00,,,0.00,Wunderground v.1.12,2013-03-25 06:17:00,
2013-03-25 02:22:00,32.5,22.4,29.58,North,9,3.0,14.0,66,0.00,,,0.00,Wunderground v.1.12,2013-03-25 06:22:00,
2013-03-25 02:27:00,32.5,22.4,29.57,NNE,17,8.0,14.0,66,0.00,,,0.00,Wunderground v.1.12,2013-03-25 06:27:00,
2013-03-25 02:32:00,32.5,22.4,29.57,NNE,30,13.0,19.0,66,0.00,,,0.00,Wunderground v.1.12,2013-03-25 06:32:00,
2013-03-25 02:37:00,32.5,22.4,29.57,NNE,25,7.0,16.0,66,0.00,,,0.00,Wunderground v.1.12,2013-03-25 06:37:00,
2013-03-25 02:42:00,32.5,22.4,29.56,NE,40,6.0,14.0,66,0.00,,,0.00,Wunderground v.1.12,2013-03-25 06:42:00,
2013-03-25 02:47:00,32.5,22.4,29.56,NNE,31,12.0,18.0,66,0.00,,,0.00,Wunderground v.1.12,2013-03-25 06:47:00,
2013-03-25 02:52:00,32.5,22.8,29.56,NE,45,15.0,16.0,67,0.00,,,0.00,Wunderground v.1.12,2013-03-25 06:52:00,
2013-03-25 02:57:00,32.5,22.8,29.56,NNE,19,16.0,16.0,67,0.00,,,0.00,Wunderground v.1.12,2013-03-25 06:57:00,
2013-03-25 03:02:00,32.5,22.8,29.56,NE,48,8.0,17.0,67,0.00,,,0.00,Wunderground v.1.12,2013-03-25 07:02:00,
2013-03-25 03:08:00,32.5,22.8,29.56,NNE,30,15.0,15.0,67,0.00,,,0.00,Wunderground v.1.12,2013-03-25 07:08:00,
2013-03-25 03:13:00,32.5,22.8,29.56,NE,43,14.0,14.0,67,0.00,,,0.00,Wunderground v.1.12,2013-03-25 07:13:00,
2013-03-25 03:18:00,32.4,22.7,29.56,ENE,58,15.0,24.0,67,0.00,,,0.00,Wunderground v.1.12,2013-03-25 07:18:00,
2013-03-25 03:24:00,32.4,23.0,29.56,NE,50,13.0,18.0,68,0.00,,,0.00,Wunderground v.1.12,2013-03-25 07:24:00,
2013-03-25 03:30:00,32.4,23.0,29.55,NE,44,12.0,12.0,68,0.00,,,0.00,Wunderground v.1.12,2013-03-25 07:30:00,
2013-03-25 03:35:00,32.2,22.8,29.55,North,10,13.0,15.0,68,0.00,,,0.00,Wunderground v.1.12,2013-03-25 07:35:00,
2013-03-25 03:40:00,32.2,22.8,29.55,NE,45,14.0,15.0,68,0.00,,,0.00,Wunderground v.1.12,2013-03-25 07:40:00,
2013-03-25 03:45:00,32.2,22.8,29.55,NNE,17,10.0,12.0,68,0.00,,,0.00,Wunderground v.1.12,2013-03-25 07:45:00,
2013-03-25 03:50:00,32.2,22.8,29.55,ENE,58,18.0,18.0,68,0.00,,,0.00,Wunderground v.1.12,2013-03-25 07:50:00,
2013-03-25 03:55:00,32.2,22.8,29.55,NNE,23,11.0,12.0,68,0.00,,,0.00,Wunderground v.1.12,2013-03-25 07:55:00,
2013-03-25 04:00:00,32.2,22.8,29.54,ENE,60,7.0,11.0,68,0.00,,,0.00,Wunderground v.1.12,2013-03-25 08:00:00,
2013-03-25 04:05:00,32.2,23.2,29.54,NE,47,8.0,11.0,69,0.00,,,0.00,Wunderground v.1.12,2013-03-25 08:05:00,
2013-03-25 04:10:00,32.2,23.2,29.54,NNE,29,7.0,11.0,69,0.00,,,0.00,Wunderground v.1.12,2013-03-25 08:10:00,
2013-03-25 04:15:00,32.2,23.2,29.54,NNE,17,10.0,11.0,69,0.00,,,0.00,Wunderground v.1.12,2013-03-25 08:15:00,
2013-03-25 04:20:00,32.2,23.2,29.54,NE,36,8.0,10.0,69,0.00,,,0.00,Wunderground v.1.12,2013-03-25 08:20:00,
2013-03-25 04:25:00,32.2,23.2,29.54,NE,54,13.0,13.0,69,0.00,,,0.00,Wunderground v.1.12,2013-03-25 08:25:00,
2013-03-25 04:30:00,32.2,22.8,29.53,NE,47,7.0,11.0,68,0.00,,,0.00,Wunderground v.1.12,2013-03-25 08:30:00,
2013-03-25 04:35:00,32.2,23.2,29.53,NE,50,9.0,11.0,69,0.00,,,0.00,Wunderground v.1.12,2013-03-25 08:35:00,
2013-03-25 04:40:00,32.2,23.2,29.53,NE,52,9.0,10.0,69,0.00,,,0.00,Wunderground v.1.12,2013-03-25 08:40:00,
2013-03-25 04:45:00,32.2,23.2,29.53,NE,48,11.0,11.0,69,0.00,,,0.00,Wunderground v.1.12,2013-03-25 08:45:00,
2013-03-25 04:50:00,32.2,23.2,29.53,NNE,31,9.0,11.0,69,0.00,,,0.00,Wunderground v.1.12,2013-03-25 08:50:00,
2013-03-25 04:55:00,32.2,23.2,29.53,NE,39,9.0,11.0,69,0.00,,,0.00,Wunderground v.1.12,2013-03-25 08:55:00,
2013-03-25 05:00:00,32.2,23.5,29.53,NNE,12,12.0,13.0,70,0.00,,,0.00,Wunderground v.1.12,2013-03-25 09:00:00,
2013-03-25 05:05:00,32.2,23.5,29.53,NE,52,10.0,10.0,70,0.00,,,0.00,Wunderground v.1.12,2013-03-25 09:05:00,
2013-03-25 05:10:00,32.1,23.8,29.53,NE,56,7.0,11.0,71,0.00,,,0.00,Wunderground v.1.12,2013-03-25 09:10:00,
2013-03-25 05:15:00,32.1,23.8,29.53,NE,35,13.0,13.0,71,0.00,,,0.00,Wunderground v.1.12,2013-03-25 09:15:00,
2013-03-25 05:20:00,32.1,23.8,29.53,NNE,14,11.0,11.0,71,0.00,,,0.00,Wunderground v.1.12,2013-03-25 09:20:00,
2013-03-25 05:25:00,31.9,23.6,29.53,NNE,17,11.0,11.0,71,0.00,,,0.00,Wunderground v.1.12,2013-03-25 09:25:00,
2013-03-25 05:30:00,31.9,23.9,29.53,NNE,27,9.0,11.0,72,0.00,,,0.00,Wunderground v.1.12,2013-03-25 09:30:00,
2013-03-25 05:35:00,31.9,23.9,29.53,NE,37,13.0,18.0,72,0.00,,,0.00,Wunderground v.1.12,2013-03-25 09:35:00,
2013-03-25 05:40:00,31.9,23.9,29.53,NNE,21,4.0,11.0,72,0.00,,,0.00,Wunderground v.1.12,2013-03-25 09:40:00,
2013-03-25 05:45:00,31.9,24.2,29.54,NNE,22,8.0,11.0,73,0.00,,,0.00,Wunderground v.1.12,2013-03-25 09:45:00,
2013-03-25 05:50:00,31.8,24.5,29.54,NNE,26,9.0,16.0,74,0.00,,,0.00,Wunderground v.1.12,2013-03-25 09:50:00,
2013-03-25 05:55:00,31.5,24.8,29.54,NNE,33,9.0,9.0,76,0.00,,,0.00,Wunderground v.1.12,2013-03-25 09:55:00,
2013-03-25 06:00:00,31.3,24.9,29.54,NE,52,3.0,11.0,77,0.00,,,0.00,Wunderground v.1.12,2013-03-25 10:00:00,
2013-03-25 06:05:00,31.0,24.9,29.54,NE,49,14.0,19.0,78,0.00,,,0.00,Wunderground v.1.12,2013-03-25 10:05:00,
2013-03-25 06:10:00,30.9,25.2,29.54,NE,50,8.0,11.0,79,0.00,,,0.00,Wunderground v.1.12,2013-03-25 10:10:00,
2013-03-25 06:15:00,30.7,25.3,29.54,ENE,60,10.0,11.0,80,0.00,,,0.00,Wunderground v.1.12,2013-03-25 10:15:00,
2013-03-25 06:20:00,30.6,25.5,29.54,NE,46,6.0,11.0,81,0.00,,,0.00,Wunderground v.1.12,2013-03-25 10:20:00,
2013-03-25 06:25:00,30.6,25.8,29.54,ENE,63,9.0,9.0,82,0.00,,,0.00,Wunderground v.1.12,2013-03-25 10:25:00,
2013-03-25 06:30:00,30.4,25.6,29.54,NE,46,6.0,8.0,82,0.00,,,0.00,Wunderground v.1.12,2013-03-25 10:30:00,
2013-03-25 06:35:00,30.3,25.8,29.54,NE,56,9.0,13.0,83,0.00,,,0.00,Wunderground v.1.12,2013-03-25 10:35:00,
2013-03-25 06:40:00,30.3,25.8,29.54,North,10,16.0,16.0,83,0.00,,,0.00,Wunderground v.1.12,2013-03-25 10:40:00,
2013-03-25 06:45:00,30.3,25.8,29.54,North,360,2.0,8.0,83,0.00,,,0.00,Wunderground v.1.12,2013-03-25 10:45:00,
2013-03-25 06:50:00,30.3,25.8,29.54,ENE,64,6.0,8.0,83,0.00,,,0.00,Wunderground v.1.12,2013-03-25 10:50:00,
2013-03-25 06:55:00,30.3,25.8,29.54,NNE,33,11.0,13.0,83,0.00,,,0.00,Wunderground v.1.12,2013-03-25 10:55:00,
2013-03-25 07:00:00,30.4,25.9,29.53,NNE,23,10.0,15.0,83,0.00,,,0.00,Wunderground v.1.12,2013-03-25 11:00:00,
2013-03-25 07:06:00,30.4,25.9,29.53,NE,41,7.0,10.0,83,0.00,,,0.00,Wunderground v.1.12,2013-03-25 11:06:00,
2013-03-25 07:11:00,30.6,26.1,29.53,NE,42,7.0,11.0,83,0.00,,,0.00,Wunderground v.1.12,2013-03-25 11:11:00,
2013-03-25 07:16:00,30.6,26.1,29.54,North,10,11.0,16.0,83,0.00,,,0.00,Wunderground v.1.12,2013-03-25 11:16:00,
2013-03-25 07:21:00,30.6,26.1,29.54,NE,39,12.0,12.0,83,0.00,,,0.00,Wunderground v.1.12,2013-03-25 11:21:00,
2013-03-25 07:26:00,30.6,26.1,29.54,NNE,21,8.0,13.0,83,0.00,,,0.00,Wunderground v.1.12,2013-03-25 11:26:00,
2013-03-25 07:32:00,30.6,26.1,29.54,NE,35,19.0,19.0,83,0.00,,,0.00,Wunderground v.1.12,2013-03-25 11:32:00,
2013-03-25 07:37:00,30.6,26.1,29.54,NNE,17,14.0,20.0,83,0.00,,,0.00,Wunderground v.1.12,2013-03-25 11:37:00,
2013-03-25 07:42:00,30.6,26.1,29.54,North,11,7.0,14.0,83,0.00,,,0.00,Wunderground v.1.12,2013-03-25 11:42:00,
2013-03-25 07:47:00,30.6,26.1,29.54,NE,49,7.0,16.0,83,0.00,,,0.00,Wunderground v.1.12,2013-03-25 11:47:00,
2013-03-25 07:52:00,30.6,26.3,29.54,NNE,29,10.0,17.0,84,0.00,,,0.00,Wunderground v.1.12,2013-03-25 11:52:00,
2013-03-25 07:57:00,30.6,26.3,29.54,NNE,26,11.0,11.0,84,0.00,,,0.00,Wunderground v.1.12,2013-03-25 11:57:00,
2013-03-25 08:02:00,30.6,26.3,29.54,ENE,58,7.0,11.0,84,0.00,,,0.00,Wunderground v.1.12,2013-03-25 12:02:00,
2013-03-25 08:07:00,30.6,26.3,29.54,NE,55,9.0,19.0,84,0.00,,,0.00,Wunderground v.1.12,2013-03-25 12:07:00,
2013-03-25 08:12:00,30.7,26.4,29.55,North,3,15.0,15.0,84,0.00,,,0.00,Wunderground v.1.12,2013-03-25 12:12:00,
2013-03-25 08:17:00,30.9,26.3,29.55,NE,35,4.0,14.0,83,0.00,,,0.00,Wunderground v.1.12,2013-03-25 12:17:00,
2013-03-25 08:22:00,31.0,26.1,29.55,NNE,20,8.0,13.0,82,0.00,,,0.00,Wunderground v.1.12,2013-03-25 12:22:00,
2013-03-25 08:27:00,31.2,26.0,29.55,NE,44,13.0,21.0,81,0.00,,,0.00,Wunderground v.1.12,2013-03-25 12:27:00,
2013-03-25 08:32:00,31.3,25.8,29.55,NE,44,11.0,15.0,80,0.00,,,0.00,Wunderground v.1.12,2013-03-25 12:32:00,
2013-03-25 08:37:00,31.5,25.7,29.55,NNE,17,10.0,19.0,79,0.00,,,0.00,Wunderground v.1.12,2013-03-25 12:37:00,
2013-03-25 08:43:00,31.6,25.5,29.55,NNE,22,7.0,19.0,78,0.00,,,0.00,Wunderground v.1.12,2013-03-25 12:43:00,
2013-03-25 08:48:00,31.8,25.7,29.55,NNE,15,11.0,14.0,78,0.00,,,0.00,Wunderground v.1.12,2013-03-25 12:48:00,
2013-03-25 08:53:00,31.8,25.4,29.55,East,82,13.0,24.0,77,0.00,,,0.00,Wunderground v.1.12,2013-03-25 12:53:00,
2013-03-25 08:57:00,31.9,25.2,29.56,NNE,17,8.0,19.0,76,0.00,,,0.00,Wunderground v.1.12,2013-03-25 12:57:00,
2013-03-25 09:03:00,31.9,25.2,29.56,NNE,25,9.0,18.0,76,0.00,,,0.00,Wunderground v.1.12,2013-03-25 13:03:00,
2013-03-25 09:08:00,32.1,25.4,29.56,ENE,77,17.0,20.0,76,0.00,,,0.00,Wunderground v.1.12,2013-03-25 13:08:00,
2013-03-25 09:13:00,32.1,25.1,29.56,NNE,12,22.0,22.0,75,0.00,,,0.00,Wunderground v.1.12,2013-03-25 13:13:00,
2013-03-25 09:19:00,32.1,25.1,29.56,NE,34,17.0,17.0,75,0.00,,,0.00,Wunderground v.1.12,2013-03-25 13:19:00,
2013-03-25 09:24:00,32.1,25.1,29.56,NE,50,10.0,19.0,75,0.00,,,0.00,Wunderground v.1.12,2013-03-25 13:24:00,
2013-03-25 09:29:00,32.2,24.8,29.57,North,8,12.0,17.0,74,0.00,,,0.00,Wunderground v.1.12,2013-03-25 13:29:00,
2013-03-25 09:34:00,32.2,24.8,29.57,NNE,24,11.0,16.0,74,0.00,,,0.00,Wunderground v.1.12,2013-03-25 13:34:00,
2013-03-25 09:39:00,32.4,25.0,29.57,NE,52,8.0,19.0,74,0.00,,,0.00,Wunderground v.1.12,2013-03-25 13:39:00,
2013-03-25 09:44:00,32.4,25.0,29.57,NE,39,10.0,19.0,74,0.00,,,0.00,Wunderground v.1.12,2013-03-25 13:44:00,
2013-03-25 09:50:00,32.4,24.7,29.57,NNE,21,5.0,12.0,73,0.00,,,0.00,Wunderground v.1.12,2013-03-25 13:50:00,
2013-03-25 09:55:00,32.5,24.8,29.57,NNE,17,15.0,15.0,73,0.00,,,0.00,Wunderground v.1.12,2013-03-25 13:55:00,
2013-03-25 10:00:00,32.5,24.8,29.57,NNE,30,6.0,11.0,73,0.00,,,0.00,Wunderground v.1.12,2013-03-25 14:00:00,
2013-03-25 10:05:00,32.5,24.8,29.57,NNE,20,20.0,20.0,73,0.00,,,0.00,Wunderground v.1.12,2013-03-25 14:05:00,
2013-03-25 10:10:00,32.7,25.0,29.57,NE,47,11.0,12.0,73,0.00,,,0.00,Wunderground v.1.12,2013-03-25 14:10:00,
2013-03-25 10:14:00,32.7,25.0,29.58,NE,50,7.0,20.0,73,0.00,,,0.00,Wunderground v.1.12,2013-03-25 14:14:00,
2013-03-25 10:19:00,32.8,24.8,29.58,North,358,11.0,24.0,72,0.00,,,0.00,Wunderground v.1.12,2013-03-25 14:19:00,
2013-03-25 10:24:00,32.8,24.8,29.58,North,8,9.0,16.0,72,0.00,,,0.00,Wunderground v.1.12,2013-03-25 14:24:00,
2013-03-25 10:29:00,32.9,24.9,29.59,NNW,336,13.0,20.0,72,0.00,,,0.00,Wunderground v.1.12,2013-03-25 14:29:00,
2013-03-25 10:34:00,32.9,24.9,29.59,NNE,12,5.0,16.0,72,0.00,,,0.00,Wunderground v.1.12,2013-03-25 14:34:00,
2013-03-25 10:39:00,33.1,24.7,29.59,NNE,19,7.0,24.0,71,0.00,,,0.00,Wunderground v.1.12,2013-03-25 14:39:00,
2013-03-25 10:45:00,33.1,24.7,29.59,NNE,15,8.0,11.0,71,0.00,,,0.00,Wunderground v.1.12,2013-03-25 14:45:00,
2013-03-25 10:50:00,33.2,24.8,29.59,ENE,57,12.0,12.0,71,0.00,,,0.00,Wunderground v.1.12,2013-03-25 14:50:00,
2013-03-25 10:55:00,33.2,24.5,29.59,NNE,25,11.0,11.0,70,0.00,,,0.00,Wunderground v.1.12,2013-03-25 14:55:00,
2013-03-25 11:00:00,33.4,24.7,29.59,NNE,26,6.0,11.0,70,0.00,,,0.00,Wunderground v.1.12,2013-03-25 15:00:00,
2013-03-25 11:05:00,33.5,24.8,29.59,NE,42,10.0,10.0,70,0.00,,,0.00,Wunderground v.1.12,2013-03-25 15:05:00,
2013-03-25 11:10:00,33.7,24.6,29.59,NNE,28,6.0,11.0,69,0.00,,,0.00,Wunderground v.1.12,2013-03-25 15:10:00,
2013-03-25 11:15:00,33.8,24.7,29.59,ENE,58,5.0,10.0,69,0.00,,,0.00,Wunderground v.1.12,2013-03-25 15:15:00,
2013-03-25 11:20:00,34.0,24.9,29.59,NE,46,14.0,14.0,69,0.00,,,0.00,Wunderground v.1.12,2013-03-25 15:20:00,
2013-03-25 11:25:00,34.3,24.8,29.59,North,2,20.0,22.0,68,0.00,,,0.00,Wunderground v.1.12,2013-03-25 15:25:00,
2013-03-25 11:30:00,34.4,24.6,29.59,NNW,346,8.0,12.0,67,0.00,,,0.00,Wunderground v.1.12,2013-03-25 15:30:00,
2013-03-25 11:35:00,34.7,24.9,29.59,NNE,21,16.0,16.0,67,0.00,,,0.00,Wunderground v.1.12,2013-03-25 15:35:00,
2013-03-25 11:40:00,35.0,25.1,29.59,North,5,13.0,13.0,67,0.00,,,0.00,Wunderground v.1.12,2013-03-25 15:40:00,
2013-03-25 11:45:00,35.5,25.3,29.59,North,8,12.0,14.0,66,0.00,,,0.00,Wunderground v.1.12,2013-03-25 15:45:00,
2013-03-25 11:50:00,35.5,24.9,29.59,North,11,15.0,17.0,65,0.00,,,0.00,Wunderground v.1.12,2013-03-25 15:50:00,
2013-03-25 11:55:00,35.5,24.9,29.59,NNE,32,9.0,13.0,65,0.00,,,0.00,Wunderground v.1.12,2013-03-25 15:55:00,
2013-03-25 12:00:00,35.5,24.9,29.60,NE,42,11.0,12.0,65,0.00,,,0.00,Wunderground v.1.12,2013-03-25 16:00:00,
2013-03-25 12:05:00,35.3,24.7,29.60,NNE,12,16.0,16.0,65,0.00,,,0.00,Wunderground v.1.12,2013-03-25 16:05:00,
2013-03-25 12:10:00,35.3,24.7,29.60,NNE,20,10.0,17.0,65,0.00,,,0.00,Wunderground v.1.12,2013-03-25 16:10:00,
2013-03-25 12:15:00,35.3,25.1,29.60,NNE,26,14.0,14.0,66,0.00,,,0.00,Wunderground v.1.12,2013-03-25 16:15:00,
2013-03-25 12:21:00,35.3,25.1,29.60,NE,48,7.0,11.0,66,0.00,,,0.00,Wunderground v.1.12,2013-03-25 16:21:00,
2013-03-25 12:26:00,35.6,25.0,29.60,NNE,20,8.0,23.0,65,0.00,,,0.00,Wunderground v.1.12,2013-03-25 16:26:00,
2013-03-25 12:31:00,35.9,25.3,29.60,NNE,14,18.0,18.0,65,0.00,,,0.00,Wunderground v.1.12,2013-03-25 16:31:00,
2013-03-25 12:36:00,35.9,25.3,29.60,ENE,64,5.0,11.0,65,0.00,,,0.00,Wunderground v.1.12,2013-03-25 16:36:00,
2013-03-25 12:41:00,35.9,24.9,29.60,NE,49,10.0,16.0,64,0.00,,,0.00,Wunderground v.1.12,2013-03-25 16:41:00,
2013-03-25 12:46:00,35.9,24.9,29.61,NNE,17,8.0,18.0,64,0.00,,,0.00,Wunderground v.1.12,2013-03-25 16:46:00,
2013-03-25 12:51:00,35.9,24.9,29.61,North,350,6.0,17.0,64,0.00,,,0.00,Wunderground v.1.12,2013-03-25 16:51:00,
2013-03-25 12:56:00,36.0,25.0,29.61,NNE,19,14.0,14.0,64,0.00,,,0.00,Wunderground v.1.12,2013-03-25 16:56:00,
2013-03-25 13:01:00,36.2,25.2,29.61,NNE,26,10.0,10.0,64,0.00,,,0.00,Wunderground v.1.12,2013-03-25 17:01:00,
2013-03-25 13:06:00,36.3,25.3,29.61,NNE,31,10.0,12.0,64,0.00,,,0.00,Wunderground v.1.12,2013-03-25 17:06:00,
2013-03-25 13:11:00,36.3,24.9,29.61,North,360,13.0,20.0,63,0.00,,,0.00,Wunderground v.1.12,2013-03-25 17:11:00,
2013-03-25 13:16:00,36.0,25.0,29.62,ENE,57,7.0,18.0,64,0.00,,,0.00,Wunderground v.1.12,2013-03-25 17:16:00,
2013-03-25 13:21:00,35.9,24.9,29.62,NE,37,9.0,13.0,64,0.00,,,0.00,Wunderground v.1.12,2013-03-25 17:21:00,
2013-03-25 13:26:00,35.9,24.9,29.62,NNE,24,13.0,16.0,64,0.00,,,0.00,Wunderground v.1.12,2013-03-25 17:26:00,
2013-03-25 13:31:00,36.0,25.0,29.62,NNE,19,10.0,10.0,64,0.00,,,0.00,Wunderground v.1.12,2013-03-25 17:31:00,
2013-03-25 13:36:00,36.2,25.2,29.62,NE,52,14.0,14.0,64,0.00,,,0.00,Wunderground v.1.12,2013-03-25 17:36:00,
2013-03-25 13:41:00,36.5,25.1,29.62,ENE,61,5.0,17.0,63,0.00,,,0.00,Wunderground v.1.12,2013-03-25 17:41:00,
2013-03-25 13:46:00,36.8,25.4,29.62,NE,43,6.0,13.0,63,0.00,,,0.00,Wunderground v.1.12,2013-03-25 17:46:00,
2013-03-25 13:51:00,36.9,25.1,29.62,NNE,27,13.0,17.0,62,0.00,,,0.00,Wunderground v.1.12,2013-03-25 17:51:00,
2013-03-25 13:56:00,36.9,25.5,29.63,NNE,31,11.0,13.0,63,0.00,,,0.00,Wunderground v.1.12,2013-03-25 17:56:00,
2013-03-25 14:02:00,36.9,25.9,29.63,NE,56,8.0,15.0,64,0.00,,,0.00,Wunderground v.1.12,2013-03-25 18:02:00,
2013-03-25 14:07:00,36.9,26.2,29.63,NNE,31,5.0,15.0,65,0.00,,,0.00,Wunderground v.1.12,2013-03-25 18:07:00,
2013-03-25 14:12:00,36.8,26.5,29.63,NNE,19,10.0,13.0,66,0.00,,,0.00,Wunderground v.1.12,2013-03-25 18:12:00,
2013-03-25 14:17:00,36.6,26.7,29.63,NE,48,10.0,10.0,67,0.00,,,0.00,Wunderground v.1.12,2013-03-25 18:17:00,
2013-03-25 14:22:00,36.6,26.7,29.63,NNE,14,3.0,15.0,67,0.00,,,0.00,Wunderground v.1.12,2013-03-25 18:22:00,
2013-03-25 14:27:00,36.8,26.9,29.63,North,5,11.0,12.0,67,0.00,,,0.00,Wunderground v.1.12,2013-03-25 18:27:00,
2013-03-25 14:32:00,36.9,27.0,29.63,NNE,26,7.0,13.0,67,0.00,,,0.00,Wunderground v.1.12,2013-03-25 18:32:00,
2013-03-25 14:37:00,36.9,27.7,29.63,North,8,9.0,19.0,69,0.00,,,0.00,Wunderground v.1.12,2013-03-25 18:37:00,
2013-03-25 14:42:00,36.8,27.9,29.64,ENE,62,5.0,15.0,70,0.00,,,0.00,Wunderground v.1.12,2013-03-25 18:42:00,
2013-03-25 14:47:00,36.8,27.6,29.64,North,11,19.0,19.0,69,0.00,,,0.00,Wunderground v.1.12,2013-03-25 18:47:00,
2013-03-25 14:52:00,37.2,26.9,29.64,NE,46,11.0,16.0,66,0.00,,,0.00,Wunderground v.1.12,2013-03-25 18:52:00,
2013-03-25 14:57:00,37.5,26.4,29.64,NNE,26,7.0,15.0,64,0.00,,,0.00,Wunderground v.1.12,2013-03-25 18:57:00,
2013-03-25 15:02:00,37.9,26.8,29.64,North,360,9.0,11.0,64,0.00,,,0.00,Wunderground v.1.12,2013-03-25 19:02:00,
2013-03-25 15:07:00,37.9,26.8,29.64,ENE,61,10.0,14.0,64,0.00,,,0.00,Wunderground v.1.12,2013-03-25 19:07:00,
2013-03-25 15:12:00,37.9,26.8,29.64,NNE,32,8.0,11.0,64,0.00,,,0.00,Wunderground v.1.12,2013-03-25 19:12:00,
2013-03-25 15:17:00,38.2,25.9,29.64,NNW,334,12.0,14.0,61,0.00,,,0.00,Wunderground v.1.12,2013-03-25 19:17:00,
2013-03-25 15:22:00,38.3,25.6,29.64,NNW,337,13.0,19.0,60,0.00,,,0.00,Wunderground v.1.12,2013-03-25 19:22:00,
2013-03-25 15:27:00,38.5,25.8,29.65,North,10,6.0,13.0,60,0.00,,,0.00,Wunderground v.1.12,2013-03-25 19:27:00,
2013-03-25 15:32:00,38.5,25.4,29.65,NE,46,10.0,18.0,59,0.00,,,0.00,Wunderground v.1.12,2013-03-25 19:32:00,
2013-03-25 15:37:00,38.5,25.4,29.65,NE,48,7.0,21.0,59,0.00,,,0.00,Wunderground v.1.12,2013-03-25 19:37:00,
2013-03-25 15:42:00,38.5,25.4,29.65,North,8,17.0,17.0,59,0.00,,,0.00,Wunderground v.1.12,2013-03-25 19:42:00,
2013-03-25 15:47:00,38.6,25.1,29.65,NE,43,11.0,19.0,58,0.00,,,0.00,Wunderground v.1.12,2013-03-25 19:47:00,
2013-03-25 15:52:00,38.6,25.5,29.65,North,6,12.0,20.0,59,0.00,,,0.00,Wunderground v.1.12,2013-03-25 19:52:00,
2013-03-25 15:57:00,38.8,25.3,29.65,North,9,7.0,21.0,58,0.00,,,0.00,Wunderground v.1.12,2013-03-25 19:57:00,
2013-03-25 16:02:00,39.1,26.0,29.65,NE,39,6.0,16.0,59,0.00,,,0.00,Wunderground v.1.12,2013-03-25 20:02:00,
2013-03-25 16:07:00,39.5,25.9,29.65,NE,54,5.0,11.0,58,0.00,,,0.00,Wunderground v.1.12,2013-03-25 20:07:00,
2013-03-25 16:12:00,39.8,25.8,29.66,North,354,10.0,18.0,57,0.00,,,0.00,Wunderground v.1.12,2013-03-25 20:12:00,
2013-03-25 16:17:00,39.8,25.8,29.66,North,359,7.0,19.0,57,0.00,,,0.00,Wunderground v.1.12,2013-03-25 20:17:00,
2013-03-25 16:22:00,39.8,25.8,29.66,NW,309,9.0,16.0,57,0.00,,,0.00,Wunderground v.1.12,2013-03-25 20:22:00,
2013-03-25 16:27:00,39.6,25.6,29.67,NNE,25,9.0,20.0,57,0.00,,,0.00,Wunderground v.1.12,2013-03-25 20:27:00,
2013-03-25 16:34:00,39.5,25.5,29.67,ENE,58,12.0,25.0,57,0.00,,,0.00,Wunderground v.1.12,2013-03-25 20:34:00,
2013-03-25 16:39:00,39.5,25.1,29.67,North,2,17.0,20.0,56,0.00,,,0.00,Wunderground v.1.12,2013-03-25 20:39:00,
2013-03-25 16:44:00,39.6,25.2,29.67,East,84,6.0,18.0,56,0.00,,,0.00,Wunderground v.1.12,2013-03-25 20:44:00,
2013-03-25 16:49:00,39.6,24.7,29.67,NNE,23,11.0,17.0,55,0.00,,,0.00,Wunderground v.1.12,2013-03-25 20:49:00,
2013-03-25 16:54:00,39.5,25.1,29.67,NE,46,11.0,21.0,56,0.00,,,0.00,Wunderground v.1.12,2013-03-25 20:54:00,
2013-03-25 16:59:00,39.6,25.2,29.68,NNE,20,9.0,15.0,56,0.00,,,0.00,Wunderground v.1.12,2013-03-25 20:59:00,
2013-03-25 17:04:00,39.5,25.1,29.68,NE,39,7.0,22.0,56,0.00,,,0.00,Wunderground v.1.12,2013-03-25 21:04:00,
2013-03-25 17:09:00,39.3,25.3,29.68,NNE,16,8.0,16.0,57,0.00,,,0.00,Wunderground v.1.12,2013-03-25 21:09:00,
2013-03-25 17:14:00,39.5,25.5,29.69,NNW,341,8.0,11.0,57,0.00,,,0.00,Wunderground v.1.12,2013-03-25 21:14:00,
2013-03-25 17:20:00,39.3,25.3,29.69,North,356,12.0,12.0,57,0.00,,,0.00,Wunderground v.1.12,2013-03-25 21:20:00,
2013-03-25 17:25:00,39.2,25.2,29.69,NNE,31,15.0,15.0,57,0.00,,,0.00,Wunderground v.1.12,2013-03-25 21:25:00,
2013-03-25 17:30:00,39.1,25.6,29.70,NNE,17,6.0,9.0,58,0.00,,,0.00,Wunderground v.1.12,2013-03-25 21:30:00,
2013-03-25 17:35:00,38.9,24.9,29.70,NE,38,7.0,8.0,57,0.00,,,0.00,Wunderground v.1.12,2013-03-25 21:35:00,
2013-03-25 17:40:00,38.9,24.9,29.70,NNW,343,5.0,9.0,57,0.00,,,0.00,Wunderground v.1.12,2013-03-25 21:40:00,
2013-03-25 17:45:00,38.9,25.4,29.70,North,7,3.0,7.0,58,0.00,,,0.00,Wunderground v.1.12,2013-03-25 21:45:00,
2013-03-25 17:50:00,39.1,25.6,29.70,North,357,5.0,6.0,58,0.00,,,0.00,Wunderground v.1.12,2013-03-25 21:50:00,
2013-03-25 17:55:00,39.1,25.1,29.70,NE,39,5.0,8.0,57,0.00,,,0.00,Wunderground v.1.12,2013-03-25 21:55:00,
2013-03-25 18:00:00,39.1,25.1,29.71,NNE,25,11.0,11.0,57,0.00,,,0.00,Wunderground v.1.12,2013-03-25 22:00:00,
2013-03-25 18:05:00,39.1,25.1,29.71,NNE,25,15.0,15.0,57,0.00,,,0.00,Wunderground v.1.12,2013-03-25 22:05:00,
2013-03-25 18:10:00,39.2,25.2,29.71,NNE,19,4.0,9.0,57,0.00,,,0.00,Wunderground v.1.12,2013-03-25 22:10:00,
2013-03-25 18:15:00,39.2,25.2,29.72,North,356,8.0,9.0,57,0.00,,,0.00,Wunderground v.1.12,2013-03-25 22:15:00,
2013-03-25 18:20:00,39.2,25.2,29.72,NNW,337,11.0,11.0,57,0.00,,,0.00,Wunderground v.1.12,2013-03-25 22:20:00,
2013-03-25 18:25:00,39.2,25.2,29.72,North,360,7.0,8.0,57,0.00,,,0.00,Wunderground v.1.12,2013-03-25 22:25:00,
2013-03-25 18:30:00,39.2,25.2,29.73,NNE,19,5.0,8.0,57,0.00,,,0.00,Wunderground v.1.12,2013-03-25 22:30:00,
2013-03-25 18:35:00,39.2,25.2,29.73,NNE,14,3.0,7.0,57,0.00,,,0.00,Wunderground v.1.12,2013-03-25 22:35:00,
2013-03-25 18:40:00,39.1,25.1,29.73,NE,44,6.0,7.0,57,0.00,,,0.00,Wunderground v.1.12,2013-03-25 22:40:00,
2013-03-25 18:45:00,39.1,25.6,29.73,NNE,28,3.0,7.0,58,0.00,,,0.00,Wunderground v.1.12,2013-03-25 22:45:00,
2013-03-25 18:50:00,39.1,26.0,29.73,North,1,9.0,11.0,59,0.00,,,0.00,Wunderground v.1.12,2013-03-25 22:50:00,
2013-03-25 18:55:00,38.9,25.4,29.73,NNE,25,7.0,8.0,58,0.00,,,0.00,Wunderground v.1.12,2013-03-25 22:55:00,
2013-03-25 19:00:00,38.9,25.4,29.74,NNW,343,4.0,9.0,58,0.00,,,0.00,Wunderground v.1.12,2013-03-25 23:00:00,
2013-03-25 19:05:00,38.8,25.7,29.74,NNE,12,12.0,12.0,59,0.00,,,0.00,Wunderground v.1.12,2013-03-25 23:05:00,
2013-03-25 19:10:00,38.8,25.7,29.74,North,355,4.0,7.0,59,0.00,,,0.00,Wunderground v.1.12,2013-03-25 23:10:00,
2013-03-25 19:15:00,38.6,25.5,29.75,NNE,12,12.0,12.0,59,0.00,,,0.00,Wunderground v.1.12,2013-03-25 23:15:00,
2013-03-25 19:20:00,38.5,25.0,29.75,NNE,25,4.0,7.0,58,0.00,,,0.00,Wunderground v.1.12,2013-03-25 23:20:00,
2013-03-25 19:25:00,38.5,25.4,29.75,North,11,5.0,7.0,59,0.00,,,0.00,Wunderground v.1.12,2013-03-25 23:25:00,
2013-03-25 19:30:00,38.3,25.2,29.76,North,11,4.0,6.0,59,0.00,,,0.00,Wunderground v.1.12,2013-03-25 23:30:00,
2013-03-25 19:35:00,38.3,25.6,29.76,NNW,334,6.0,6.0,60,0.00,,,0.00,Wunderground v.1.12,2013-03-25 23:35:00,
2013-03-25 19:40:00,38.3,25.6,29.76,NNW,339,9.0,13.0,60,0.00,,,0.00,Wunderground v.1.12,2013-03-25 23:40:00,
2013-03-25 19:45:00,38.2,25.9,29.77,North,10,6.0,8.0,61,0.00,,,0.00,Wunderground v.1.12,2013-03-25 23:45:00,
2013-03-25 19:50:00,38.0,25.7,29.77,NNW,330,9.0,10.0,61,0.00,,,0.00,Wunderground v.1.12,2013-03-25 23:50:00,
2013-03-25 19:55:00,37.9,25.6,29.77,NE,44,8.0,8.0,61,0.00,,,0.00,Wunderground v.1.12,2013-03-25 23:55:00,
2013-03-25 20:00:00,37.9,25.6,29.78,NE,35,3.0,7.0,61,0.00,,,0.00,Wunderground v.1.12,2013-03-26 00:00:00,
2013-03-25 20:05:00,37.8,25.5,29.78,North,10,7.0,9.0,61,0.00,,,0.00,Wunderground v.1.12,2013-03-26 00:05:00,
2013-03-25 20:10:00,37.8,25.9,29.78,NNE,18,3.0,8.0,62,0.00,,,0.00,Wunderground v.1.12,2013-03-26 00:10:00,
2013-03-25 20:15:00,37.8,25.9,29.79,NNW,344,4.0,7.0,62,0.00,,,0.00,Wunderground v.1.12,2013-03-26 00:15:00,
2013-03-25 20:20:00,37.6,25.7,29.79,NNW,333,9.0,9.0,62,0.00,,,0.00,Wunderground v.1.12,2013-03-26 00:20:00,
2013-03-25 20:25:00,37.6,25.7,29.79,North,358,3.0,9.0,62,0.00,,,0.00,Wunderground v.1.12,2013-03-26 00:25:00,
2013-03-25 20:30:00,37.6,25.7,29.80,NNW,343,5.0,7.0,62,0.00,,,0.00,Wunderground v.1.12,2013-03-26 00:30:00,
2013-03-25 20:35:00,37.5,25.7,29.80,NNE,14,3.0,7.0,62,0.00,,,0.00,Wunderground v.1.12,2013-03-26 00:35:00,
2013-03-25 20:40:00,37.5,26.0,29.80,North,354,3.0,9.0,63,0.00,,,0.00,Wunderground v.1.12,2013-03-26 00:40:00,
2013-03-25 20:45:00,37.5,26.0,29.81,North,356,4.0,6.0,63,0.00,,,0.00,Wunderground v.1.12,2013-03-26 00:45:00,
2013-03-25 20:50:00,37.3,25.8,29.81,NNW,334,7.0,7.0,63,0.00,,,0.00,Wunderground v.1.12,2013-03-26 00:50:00,
2013-03-25 20:55:00,37.3,26.2,29.81,North,355,3.0,7.0,64,0.00,,,0.00,Wunderground v.1.12,2013-03-26 00:55:00,
2013-03-25 21:00:00,37.3,26.2,29.82,North,353,4.0,14.0,64,0.00,,,0.00,Wunderground v.1.12,2013-03-26 01:00:00,
2013-03-25 21:05:00,37.2,26.1,29.82,NNE,26,7.0,9.0,64,0.00,,,0.00,Wunderground v.1.12,2013-03-26 01:05:00,
2013-03-25 21:10:00,37.2,26.5,29.82,North,4,5.0,9.0,65,0.00,,,0.00,Wunderground v.1.12,2013-03-26 01:10:00,
2013-03-25 21:15:00,37.0,26.3,29.82,NNE,17,3.0,6.0,65,0.00,,,0.00,Wunderground v.1.12,2013-03-26 01:15:00,
2013-03-25 21:20:00,37.0,26.3,29.82,North,6,9.0,10.0,65,0.00,,,0.00,Wunderground v.1.12,2013-03-26 01:20:00,
2013-03-25 21:25:00,36.9,26.6,29.82,NNW,333,7.0,8.0,66,0.00,,,0.00,Wunderground v.1.12,2013-03-26 01:25:00,
2013-03-25 21:30:00,36.9,26.6,29.83,NNW,347,5.0,5.0,66,0.00,,,0.00,Wunderground v.1.12,2013-03-26 01:30:00,
2013-03-25 21:35:00,36.9,26.6,29.83,NNW,346,6.0,6.0,66,0.00,,,0.00,Wunderground v.1.12,2013-03-26 01:35:00,
2013-03-25 21:40:00,36.9,26.6,29.83,NNW,344,6.0,9.0,66,0.00,,,0.00,Wunderground v.1.12,2013-03-26 01:40:00,
2013-03-25 21:45:00,36.9,26.6,29.84,NNW,344,4.0,5.0,66,0.00,,,0.00,Wunderground v.1.12,2013-03-26 01:45:00,
2013-03-25 21:50:00,36.8,26.9,29.84,North,355,4.0,8.0,67,0.00,,,0.00,Wunderground v.1.12,2013-03-26 01:50:00,
2013-03-25 21:55:00,36.8,26.9,29.84,North,10,3.0,6.0,67,0.00,,,0.00,Wunderground v.1.12,2013-03-26 01:55:00,
2013-03-25 22:00:00,36.6,27.0,29.84,North,349,6.0,9.0,68,0.00,,,0.00,Wunderground v.1.12,2013-03-26 02:00:00,
2013-03-25 22:05:00,36.6,27.0,29.84,NW,322,3.0,5.0,68,0.00,,,0.00,Wunderground v.1.12,2013-03-26 02:05:00,
2013-03-25 22:10:00,36.5,27.3,29.84,NNW,342,5.0,5.0,69,0.00,,,0.00,Wunderground v.1.12,2013-03-26 02:10:00,
2013-03-25 22:15:00,36.3,27.1,29.85,NNW,335,4.0,8.0,69,0.00,,,0.00,Wunderground v.1.12,2013-03-26 02:15:00,
2013-03-25 22:20:00,36.3,27.4,29.85,NNW,341,1.0,5.0,70,0.00,,,0.00,Wunderground v.1.12,2013-03-26 02:20:00,
2013-03-25 22:25:00,36.3,27.4,29.85,North,349,3.0,6.0,70,0.00,,,0.00,Wunderground v.1.12,2013-03-26 02:25:00,
2013-03-25 22:30:00,36.2,27.4,29.85,NNW,333,4.0,7.0,70,0.00,,,0.00,Wunderground v.1.12,2013-03-26 02:30:00,
2013-03-25 22:35:00,36.2,27.4,29.85,NNW,337,2.0,6.0,70,0.00,,,0.00,Wunderground v.1.12,2013-03-26 02:35:00,
2013-03-25 22:40:00,36.2,27.7,29.85,NNW,342,3.0,7.0,71,0.00,,,0.00,Wunderground v.1.12,2013-03-26 02:40:00,
2013-03-25 22:45:00,36.2,27.7,29.85,NNW,340,2.0,5.0,71,0.00,,,0.00,Wunderground v.1.12,2013-03-26 02:45:00,
2013-03-25 22:50:00,36.2,27.7,29.85,NNW,335,1.0,4.0,71,0.00,,,0.00,Wunderground v.1.12,2013-03-26 02:50:00,
2013-03-25 22:55:00,36.0,27.5,29.85,NNW,332,4.0,5.0,71,0.00,,,0.00,Wunderground v.1.12,2013-03-26 02:55:00,
2013-03-25 23:00:00,36.0,27.5,29.85,North,356,4.0,8.0,71,0.00,,,0.00,Wunderground v.1.12,2013-03-26 03:00:00,
2013-03-25 23:06:00,36.0,27.5,29.85,NNW,328,5.0,9.0,71,0.00,,,0.00,Wunderground v.1.12,2013-03-26 03:06:00,
2013-03-25 23:12:00,36.0,27.5,29.86,North,358,4.0,10.0,71,0.00,,,0.00,Wunderground v.1.12,2013-03-26 03:12:00,
2013-03-25 23:17:00,36.0,27.5,29.86,NW,316,4.0,7.0,71,0.00,,,0.00,Wunderground v.1.12,2013-03-26 03:17:00,
2013-03-25 23:22:00,36.0,27.5,29.86,NNW,337,5.0,9.0,71,0.00,,,0.00,Wunderground v.1.12,2013-03-26 03:22:00,
2013-03-25 23:27:00,36.0,27.5,29.86,NNE,21,4.0,8.0,71,0.00,,,0.00,Wunderground v.1.12,2013-03-26 03:27:00,
2013-03-25 23:32:00,36.0,27.5,29.86,NNW,330,9.0,11.0,71,0.00,,,0.00,Wunderground v.1.12,2013-03-26 03:32:00,
2013-03-25 23:37:00,36.0,27.5,29.86,NNW,338,5.0,10.0,71,0.00,,,0.00,Wunderground v.1.12,2013-03-26 03:37:00,
2013-03-25 23:42:00,35.9,27.4,29.87,NNW,340,4.0,10.0,71,0.00,,,0.00,Wunderground v.1.12,2013-03-26 03:42:00,
2013-03-25 23:47:00,35.9,27.4,29.87,NW,325,2.0,9.0,71,0.00,,,0.00,Wunderground v.1.12,2013-03-26 03:47:00,
2013-03-25 23:52:00,35.9,27.4,29.87,NNW,331,4.0,9.0,71,0.00,,,0.00,Wunderground v.1.12,2013-03-26 03:52:00,
2013-03-25 23:57:00,35.9,27.4,29.87,NNW,343,3.0,9.0,71,0.00,,,0.00,Wunderground v.1.12,2013-03-26 03:57:00,